Theta_e
311 310 310 310 311 312 314 315 325 331 328 328 328 330 329 333 332 331 331 331 326 324 319 317 317 321 322 323 325 324 320 320 322
314 311 311 312 313 316 318 324 324 327 329 332 331 331 330 332 331 328 328 314 311 311 310 309 309 309 309 310 310 310 310 310 310
321 313 312 314 316 319 321 323 324 327 328 329 330 329 327 330 327 326 316 312 310 309 308 308 307 307 307 306 306 306 306 306 306
328 314 314 315 317 319 321 323 324 325 326 324 323 321 320 324 322 326 324 313 311 310 308 308 307 307 306 306 306 306 305 305 305
331 321 315 316 318 320 321 322 322 322 323 322 321 321 322 325 323 324 315 314 312 311 309 308 307 306 306 305 305 305 305 305 305
332 327 317 317 318 319 321 322 323 323 323 322 322 323 327 327 326 326 320 317 314 312 311 309 308 307 305 305 305 305 305 305 305
335 328 323 316 318 318 319 321 322 324 324 323 323 327 326 327 325 323 321 321 319 316 313 312 310 307 306 305 305 305 305 305 305
331 331 326 322 316 317 319 320 321 323 324 322 323 324 325 327 324 323 322 322 321 321 319 315 313 310 307 306 306 306 306 306 306
333 329 331 329 321 324 318 321 319 320 320 321 322 322 323 324 324 324 322 322 321 321 321 321 318 313 310 306 306 307 307 306 306
325 332 329 329 328 328 324 321 318 316 318 319 320 320 321 322 323 324 322 322 321 321 320 321 321 319 314 312 307 306 307 307 306
320 321 325 328 327 328 325 324 322 318 316 315 317 319 319 321 322 322 324 322 322 321 320 320 320 320 321 318 313 311 307 307 307
318 319 319 321 323 324 322 320 319 319 317 316 315 317 320 321 321 323 323 323 322 322 322 320 319 319 320 320 320 317 313 311 309
317 317 317 318 318 319 319 318 318 318 317 317 316 316 317 320 322 324 325 324 323 323 323 322 320 318 318 319 319 319 319 319 317
325 317 319 322 324 323 319 319 317 318 317 316 317 318 319 321 323 323 324 324 325 325 324 323 322 320 318 318 320 321 319 319 318
331 329 323 326 327 326 321 320 320 320 321 320 321 322 322 323 323 323 324 324 325 325 325 325 324 322 320 317 317 319 319 319 318
332 333 331 329 328 327 326 323 322 322 322 323 323 323 324 324 324 325 325 325 325 324 324 324 323 322 320 318 317 317 318 319 318
333 333 333 332 330 329 328 327 327 326 325 325 326 327 328 327 326 326 326 326 325 325 324 324 322 323 322 322 319 317 316 317 320
334 333 332 331 330 329 329 329 329 329 329 328 328 328 329 328 327 326 326 325 325 324 324 323 323 322 321 321 319 318 316 316 316
333 333 332 331 330 329 329 329 330 330 330 330 330 329 329 328 327 327 327 326 325 325 324 324 325 324 323 322 321 321 320 317 316
329 330 330 330 332 331 330 330 331 330 330 330 330 330 330 330 327 326 327 326 325 325 323 323 324 324 323 322 321 320 319 318 315
Wind_Speed
15 15 17 19 20 19 19 19 19 17 17 17 17 19 17 17 15 13 13 10 6 5 7 7 5 4 4 3 2 3 4 5 6
14 16 18 19 19 19 18 18 19 18 18 18 19 17 15 12 12 12 10 9 8 8 8 8 7 7 6 5 4 3 4 4 5
13 16 17 18 18 18 18 18 18 18 18 17 16 13 12 11 11 11 11 11 11 11 10 10 10 9 9 8 8 7 7 7 9
12 15 16 16 17 17 17 17 17 17 15 14 13 13 12 11 11 10 9 11 11 11 11 11 11 10 10 9 9 9 9 10 10
12 13 14 15 15 15 15 15 14 14 13 13 12 12 11 9 10 9 10 10 11 12 11 11 10 10 9 9 9 9 9 10 10
13 12 13 13 13 13 12 12 11 10 10 10 9 9 7 7 8 7 9 10 10 10 10 10 10 10 8 8 8 8 8 8 9
15 15 13 13 12 11 11 10 9 8 7 7 7 5 5 5 6 5 7 8 9 9 9 9 9 9 8 7 7 7 7 7 7
16 15 14 13 13 11 9 9 8 8 7 5 4 4 2 2 2 3 5 6 7 8 8 9 9 8 7 6 6 6 6 6 7
14 13 12 11 10 9 9 9 9 8 6 5 4 3 2 1 0 3 3 5 6 7 7 8 8 7 6 5 4 4 5 6 5
15 15 14 12 11 10 10 9 9 8 7 7 6 5 4 4 3 3 4 4 5 6 7 6 7 7 6 6 5 4 5 5 5
16 16 15 13 12 12 11 10 9 8 8 8 7 7 6 6 6 6 6 6 6 6 7 7 7 7 8 7 7 6 7 7 7
16 15 16 15 14 14 14 12 11 10 9 9 8 8 8 7 8 8 7 8 8 7 7 7 8 8 9 10 8 8 8 8 8
18 17 16 16 15 15 14 13 13 12 10 10 10 10 11 10 10 10 9 9 9 10 9 9 9 9 9 9 13 12 11 10 10
17 18 17 16 15 15 15 13 12 11 11 11 11 10 11 11 12 11 11 12 11 11 12 11 11 12 11 11 10 14 17 15 13
17 17 19 18 17 15 15 13 12 11 11 11 11 11 12 13 13 13 13 14 13 13 13 14 14 13 13 13 12 12 17 20 18
19 18 18 18 18 16 14 14 14 12 12 11 11 13 15 15 14 14 14 14 12 10 8 10 12 13 12 13 14 14 14 19 21
20 19 19 18 18 18 17 16 15 14 14 11 10 7 8 11 9 8 6 8 8 12 10 11 9 12 15 15 16 16 17 16 23
19 18 19 20 19 19 18 19 18 17 17 17 12 6 7 6 11 12 12 14 16 15 17 15 17 17 18 18 18 19 18 20 19
21 21 21 20 21 23 23 21 20 21 23 21 22 21 19 11 10 15 18 19 19 20 21 22 21 19 18 17 19 19 18 19 20
19 23 21 22 25 25 23 24 26 26 26 26 25 23 23 24 24 16 16 22 23 21 20 21 21 21 19 19 20 18 19 18 18
Wind_Direction
104 112 114 117 119 119 117 116 113 110 108 110 112 109 104 88 85 77 90 80 80 54 42 33 48 69 68 68 50 13 360 347 334
108 114 118 120 119 118 116 115 116 113 114 111 113 109 99 88 79 77 76 70 66 61 56 58 61 64 65 66 52 32 13 9 2
115 118 124 125 123 120 117 118 121 118 118 115 113 109 98 81 80 79 74 71 65 61 59 60 60 59 57 55 55 51 49 44 42
129 125 130 130 128 126 125 122 121 122 122 117 111 103 90 85 83 77 67 62 63 60 55 53 53 52 54 55 58 60 58 55 52
145 134 137 138 137 134 130 127 123 122 123 114 107 100 86 80 75 76 64 58 55 53 50 48 48 51 55 59 60 56 55 55 55
156 152 146 147 148 146 140 135 128 124 122 120 111 103 96 85 82 75 64 59 54 50 46 43 41 41 47 56 54 56 58 56 52
172 165 162 159 160 162 159 150 143 135 131 126 118 110 103 93 85 74 61 57 50 44 39 38 37 35 37 41 44 52 51 48 45
178 175 174 175 170 174 173 173 172 173 162 151 147 134 124 111 79 50 43 41 39 35 33 30 29 29 28 28 28 32 31 28 25
183 184 181 182 178 185 188 194 198 194 188 192 197 202 215 189 291 311 349 4 10 14 20 24 23 22 21 16 7 6 9 6 4
190 189 193 188 191 195 203 205 210 211 213 217 223 236 249 261 279 291 305 319 331 343 351 360 5 7 3 359 347 334 331 328 332
198 199 200 201 202 206 209 215 218 225 229 236 241 248 255 258 270 279 286 285 296 313 325 332 337 341 343 343 337 323 309 312 321
201 201 204 206 209 212 219 226 231 236 246 249 249 252 251 261 270 273 276 281 281 286 299 307 310 316 322 322 321 320 318 317 322
210 210 209 211 215 218 222 227 229 230 242 248 251 252 254 258 267 274 277 277 274 277 280 286 291 295 301 305 308 314 312 316 318
213 213 213 214 218 223 224 227 227 229 236 239 244 250 256 263 267 274 272 270 270 271 276 276 280 282 285 288 276 289 301 307 311
216 215 217 219 221 225 225 226 226 224 231 238 246 256 264 268 272 276 274 271 273 274 275 279 278 277 281 281 278 268 278 295 302
220 218 220 222 226 229 229 230 230 230 235 246 260 264 267 269 274 275 276 277 275 281 288 286 278 276 271 273 271 267 259 273 289
222 223 226 230 230 232 234 236 239 241 242 246 251 274 259 270 267 270 269 280 275 301 284 284 260 260 266 269 267 262 259 252 261
226 227 231 234 236 238 239 241 243 249 252 247 237 237 240 247 277 280 280 273 279 280 269 274 271 271 272 270 267 271 265 263 254
236 235 234 237 238 238 240 243 245 245 247 250 248 245 251 262 269 273 277 277 275 281 279 275 275 269 271 272 268 273 272 268 257
250 250 251 253 244 242 244 248 246 252 252 256 259 258 257 256 254 264 264 277 279 280 280 279 279 279 278 272 271 267 270 264 258